Date String (YYYY-MM-DD hh:mm:ss) UTC,Instrument flags,Ambient pressure (hPa),Sample flow (lpm),Bypass flow (lpm),Sample temperature (°C),Ambient temperature (°C),ASC tube jacket temperature (°C),LED temperature (°C),Box temperature (°C),Sample RH (%),Span deviation,Mass concentration (μg/m³),Mass concentration (μg/m³),Mass concentration (μg/m³)
DateTimeUTC,F1_M11,P_M11,Q1_M11,Q2_M11,T1_M11,T2_M11,T3_M11,T4_M11,T5_M11,U1_M11,ZSPAN_M11,X0_M11,X2_M11,X1_M11
2022-06-11 15:00:00,,0824.9,5.01,0.00,29.4,28.4,00.0,38.2,31.3,29.2,0000.0,0016.04,0005.93,0004.00
2022-06-11 15:01:00,,0824.9,5.00,0.00,29.4,28.5,00.0,38.2,31.3,29.5,0000.0,0015.58,0005.93,0004.01
2022-06-11 15:02:00,,0824.9,5.00,0.00,29.4,28.0,00.0,38.2,31.3,28.9,0000.0,0015.70,0005.89,0004.00
2022-06-11 15:03:00,,0824.9,5.01,0.00,29.3,27.4,00.0,38.1,31.1,28.7,0000.0,0015.05,0005.88,0004.00
2022-06-11 15:04:00,,0824.9,5.00,0.00,29.3,27.3,00.0,38.1,31.1,29.9,0000.0,0015.12,0005.91,0004.02
2022-06-11 15:05:00,,0824.9,4.99,0.00,29.2,27.3,00.0,38.1,31.0,30.2,0000.0,0015.41,0005.93,0004.03
2022-06-11 15:06:00,,0824.9,5.00,0.00,29.2,27.5,00.0,38.1,31.0,29.8,0000.0,0016.04,0005.97,0004.04
2022-06-11 15:07:00,,0824.9,5.00,0.00,29.2,27.6,00.0,38.1,31.0,28.8,0000.0,0015.95,0005.96,0004.07
2022-06-11 15:08:00,,0824.9,5.00,0.00,29.2,27.7,00.0,38.1,31.1,28.7,0000.0,0016.39,0005.91,0004.07
2022-06-11 15:09:00,,0824.9,4.99,0.00,29.2,27.9,00.0,38.1,31.1,27.6,0000.0,0016.53,0005.92,0004.09
2022-06-11 15:10:00,,0824.9,5.00,0.00,29.2,28.0,00.0,38.1,31.2,27.9,0000.0,0016.26,0005.96,0004.09
2022-06-11 15:11:00,,0824.9,4.99,0.00,29.3,28.2,00.0,38.1,31.2,26.1,0000.0,0016.35,0005.96,0004.09
2022-06-11 15:12:00,,0824.9,5.00,0.00,29.3,28.3,00.0,38.1,31.3,28.0,0000.0,0016.74,0005.96,0004.09
2022-06-11 15:13:00,,0824.9,5.00,0.00,29.3,28.4,00.0,38.1,31.3,28.4,0000.0,0016.25,0005.94,0004.11
2022-06-11 15:14:00,,0824.9,5.00,0.00,29.4,28.1,00.0,38.1,31.2,28.2,0000.0,0016.27,0005.94,0004.12
2022-06-11 15:15:00,,0824.9,5.01,0.00,29.3,27.4,00.0,38.1,31.1,28.7,0000.0,0016.53,0005.98,0004.11
2022-06-11 15:16:00,,0824.9,5.00,0.00,29.2,27.2,00.0,38.0,31.0,28.3,0000.0,0017.56,0005.99,0004.11
2022-06-11 15:17:00,,0824.9,4.99,0.00,29.2,27.2,00.0,38.0,30.9,27.9,0000.0,0016.64,0005.98,0004.12
2022-06-11 15:18:00,,0824.9,5.01,0.00,29.1,27.4,00.0,38.0,30.9,28.6,0000.0,0016.52,0005.91,0004.10
2022-06-11 15:19:00,,0824.9,5.00,0.00,29.1,27.5,00.0,38.0,31.0,27.7,0000.0,0016.53,0005.95,0004.10
2022-06-11 15:20:00,,0824.9,5.01,0.00,29.1,27.7,00.0,38.0,31.0,27.8,0000.0,0016.87,0005.97,0004.08
2022-06-11 15:21:00,,0824.9,4.98,0.00,29.2,27.8,00.0,38.0,31.1,26.9,0000.0,0017.29,0005.95,0004.06
2022-06-11 15:22:00,,0824.9,4.99,0.00,29.2,28.0,00.0,38.0,31.1,26.0,0000.0,0017.15,0005.92,0004.03
2022-06-11 15:23:00,,0824.9,5.01,0.00,29.2,28.1,00.0,38.0,31.2,26.9,0000.0,0017.19,0005.85,0004.00
2022-06-11 15:24:00,,0824.9,5.00,0.00,29.2,28.2,00.0,38.1,31.2,26.5,0000.0,0017.49,0005.80,0003.95
2022-06-11 15:25:00,,0824.9,5.00,0.00,29.3,28.1,00.0,38.0,31.2,25.4,0000.0,0017.82,0005.82,0003.93
2022-06-11 15:26:00,,0824.9,4.99,0.00,29.2,27.4,00.0,38.0,31.0,25.0,0000.0,0017.55,0005.72,0003.89
2022-06-11 15:27:00,,0824.9,5.00,0.00,29.2,27.1,00.0,37.9,30.9,26.8,0000.0,0016.06,0005.65,0003.84
2022-06-11 15:28:00,,0824.9,5.00,0.00,29.1,27.1,00.0,38.0,30.9,27.6,0000.0,0017.53,0005.53,0003.79
2022-06-11 15:29:00,,0824.9,5.00,0.00,29.1,27.2,00.0,37.9,30.8,27.6,0000.0,0018.60,0005.55,0003.77
2022-06-11 15:30:00,,0824.8,5.00,0.00,29.1,27.4,00.0,38.0,30.9,27.0,0000.0,0019.06,0005.50,0003.73
2022-06-11 15:31:00,,0824.9,5.01,0.00,29.1,27.6,00.0,38.0,30.9,27.4,0000.0,0018.81,0005.46,0003.71
2022-06-11 15:32:00,,0824.8,5.00,0.00,29.1,27.7,00.0,38.0,31.0,27.6,0000.0,0019.53,0005.42,0003.71
2022-06-11 15:49:00,,0824.8,5.03,0.00,29.0,27.2,00.0,37.8,30.8,25.7,0000.0,0019.42,0005.66,0003.75
2022-06-11 15:50:00,,0824.7,5.00,0.00,29.0,27.3,00.0,37.8,30.8,25.8,0000.0,0020.12,0005.67,0003.73
2022-06-11 15:51:00,,0824.7,4.99,0.00,29.0,27.4,00.0,37.8,30.9,25.8,0000.0,0020.07,0005.68,0003.73
2022-06-11 15:52:00,,0824.7,5.00,0.00,29.0,27.6,00.0,37.9,30.9,26.1,0000.0,0019.62,0005.65,0003.74
2022-06-11 15:53:00,,0824.7,5.00,0.00,29.0,27.8,00.0,37.9,31.0,27.0,0000.0,0017.81,0005.64,0003.78
2022-06-11 15:54:00,,0824.7,4.99,0.00,29.1,27.9,00.0,37.9,31.0,27.9,0000.0,0017.26,0005.66,0003.83
2022-06-11 15:55:00,,0824.7,5.00,0.00,29.1,28.0,00.0,37.9,31.1,25.4,0000.0,0016.77,0005.68,0003.87
2022-06-11 15:56:00,,0824.6,5.01,0.00,29.1,27.5,00.0,37.8,30.9,23.5,0000.0,0016.86,0005.67,0003.89
2022-06-11 15:57:00,,0824.6,5.00,0.00,29.0,27.1,00.0,37.8,30.8,25.7,0000.0,0017.47,0005.69,0003.92
2022-06-11 15:58:00,,0824.6,5.00,0.00,29.0,27.0,00.0,37.8,30.8,27.2,0000.0,0016.91,0005.70,0003.96
2022-06-11 15:59:00,,0824.6,5.00,0.00,28.9,27.1,00.0,37.8,30.7,26.9,0000.0,0016.03,0005.74,0004.01
